Regional Weather Roundup
Issued by NWS

Home | Current Version | Previous Version | Graphics & Text | Print | Product List | Glossary On
Versions: 1 2 3 4 5 6 7 8 9 10 11 12 13 14 15 16 17 18 19 20 21 22 23 24 25 26 27 28 29 30 31 32 33 34 35 36 37 38 39 40 41 42 43 44 45 46 47 48 49 50
000
ASUS45 KCYS 280310
RWRWY

WYOMING REGIONAL WEATHER ROUNDUP
NATIONAL WEATHER SERVICE CHEYENNE WY
900 PM MDT SUN JUL 27 2014

NOTE:  "FAIR" INDICATES FEW OR NO CLOUDS BELOW 12,000 FEET
WITH NO SIGNIFICANT WEATHER AND/OR OBSTRUCTIONS TO VISIBILITY.

WYZ001-280400-
YELLOWSTONE NATIONAL PARK

CITY           SKY/WX    TMP DP  RH WIND       PRES   REMARKS
LK YELLOWSTONE   N/A     57  40  52 NW5       30.47R
W YELLOWSTONE  NOT AVBL

$$
WYZ002>013-054>058-071-098>099-280400-
NORTHERN WYOMING

CITY           SKY/WX    TMP DP  RH WIND       PRES   REMARKS
JACKSON        NOT AVBL
CODY           NOT AVBL
GREYBULL       PTCLDY    84  34  16 NW9       30.18R
WORLAND        PTCLDY    74  37  26 NE5       30.19R
SHERIDAN       CLEAR     70  48  45 CALM      30.26R
BUFFALO        PTCLDY    73  38  27 NW3       30.34R
GILLETTE       CLEAR     70  42  36 E7        30.30R
HULETT         FAIR      63  46  55 MISG      30.33
NEWCASTLE      FAIR      70  41  35 SE9       30.30

$$
WYZ014>020-022>026-101>103-280400-
CENTRAL WYOMING

CITY           SKY/WX    TMP DP  RH WIND       PRES   REMARKS
BIG PINEY      CLEAR     71  22  15 NE10      30.38R
PINEDALE       CLEAR     66  32  28 NW5       30.39R
DUBOIS         FAIR      70  27  19 S12       30.41R
LANDER         CLEAR     75  31  19 W10       30.28R
RIVERTON       CLEAR     75  23  14 N6        30.29R
CASPER         CLEAR     76  43  30 E8        30.31R
DOUGLAS        MOCLDY    76  49  38 E9        30.32R

$$
WYZ021-027>030-104>119-280400-
SOUTHERN WYOMING

CITY           SKY/WX    TMP DP  RH WIND       PRES   REMARKS
EVANSTON       PTCLDY    76  24  14 E6        30.34S
KEMMERER       CLEAR    N/A N/A N/A E5        30.38S
FORT BRIDGER   FAIR      76  16  10 E8        30.37F
ROCK SPRINGS   CLEAR     74  21  13 E12       30.34R
DIXON          FAIR      73  32  21 NE10      30.33R
RAWLINS        CLEAR     73  50  44 E13       30.39R
SARATOGA       FAIR      70  50  49 SE6       30.39R
LARAMIE        PTCLDY    65  54  67 E8        30.45R
CHEYENNE       PTCLDY    70  48  45 S9        30.39R
TORRINGTON     CLEAR     74  54  49 E9        30.27R
PINE BLUFFS    FAIR      70  46  43 SE9       30.35R

$$


USA.gov is the U.S. government's official web portal to all federal, state and local government web resources and services.